Location: Kawakawa
(35.3830°S, 174.0670°E)
Time: 04:13:32
(UTC+13:00)

Courier 1B - All Passes

Search period start: 10 December 2019 00:00
Search period end: 20 December 2019 00:00
Orbit: 963 x 1209 km, 28.3° (Epoch: 08 December)

Date Brightness Start Highest point End Pass type
(mag) Time Alt. Az. Time Alt. Az. Time Alt. Az.
10 Dec - 08:54:28 10° N 08:58:32 16° NNE 09:02:29 10° ENE daylight
10 Dec - 10:45:49 10° NW 10:51:55 35° NNE 10:57:48 10° ENE daylight
10 Dec - 12:39:08 10° WNW 12:45:29 46° N 12:51:39 10° ENE daylight
10 Dec - 14:33:07 10° WNW 14:39:01 36° NNW 14:44:54 10° NE daylight
10 Dec - 16:28:15 10° WNW 16:32:19 17° NNW 16:36:24 10° NNE daylight
11 Dec - 08:02:17 10° N 08:04:55 12° NNE 08:07:30 10° NE daylight
11 Dec - 09:52:20 10° NW 09:58:17 30° NNE 10:04:00 10° ENE daylight
11 Dec - 11:45:25 10° WNW 11:51:50 45° N 11:58:02 10° ENE daylight
11 Dec - 13:39:18 10° WNW 13:45:25 41° N 13:51:27 10° ENE daylight
11 Dec - 15:33:57 10° WNW 15:38:46 22° NNW 15:43:36 10° NNE daylight
12 Dec - 08:58:59 10° NNW 09:04:39 25° NNE 09:10:04 10° ENE daylight
12 Dec - 10:51:41 10° WNW 10:58:11 43° N 11:04:23 10° ENE daylight
12 Dec - 12:45:29 10° WNW 12:51:48 44° N 12:57:57 10° ENE daylight
12 Dec - 14:39:52 10° WNW 14:45:14 27° NNW 14:50:33 10° NE daylight
13 Dec - 08:05:49 10° NNW 08:11:00 21° NNE 08:15:59 10° ENE daylight
13 Dec - 09:57:59 10° NW 10:04:31 39° NNE 10:10:42 10° ENE daylight
13 Dec - 11:51:39 10° WNW 11:58:10 47° N 12:04:24 10° ENE daylight
13 Dec - 13:45:52 10° WNW 13:51:41 32° NNW 13:57:21 10° NE daylight
13 Dec - 15:41:54 10° NW 15:44:52 13° NNW 15:47:50 10° N daylight
14 Dec - 07:12:58 10° N 07:17:21 17° NNE 07:21:36 10° ENE daylight
14 Dec - 09:04:21 10° NW 09:10:49 35° NNE 09:16:58 10° ENE daylight
14 Dec - 10:57:48 10° WNW 11:04:30 47° N 11:10:50 10° ENE daylight
14 Dec - 12:51:56 10° WNW 12:58:05 38° NNW 13:04:02 10° NE daylight
14 Dec - 14:47:07 10° WNW 14:51:21 18° NNW 14:55:33 10° NNE daylight
15 Dec - 06:20:45 10° N 06:23:41 13° NNE 06:26:33 10° NE daylight
15 Dec - 08:10:49 10° NW 08:17:08 31° NNE 08:23:09 10° ENE daylight
15 Dec - 10:03:59 10° WNW 10:10:47 46° N 10:17:13 10° ENE daylight
15 Dec - 11:58:00 10° WNW 12:04:28 42° N 12:10:37 10° ENE daylight
15 Dec - 13:52:45 10° WNW 13:57:50 23° NNW 14:02:48 10° NNE daylight
16 Dec - 07:17:25 10° NNW 07:23:25 26° NNE 07:29:10 10° ENE daylight
16 Dec - 09:10:10 10° WNW 09:17:04 44° N 09:23:34 10° ENE daylight
16 Dec - 11:04:04 10° WNW 11:10:47 46° N 11:17:08 10° ENE daylight
16 Dec - 12:58:34 10° WNW 13:04:17 29° NNW 13:09:47 10° NE daylight
16 Dec - 14:56:55 10° NW 14:57:24 10° NNW 14:57:52 10° NNW daylight
17 Dec - 06:24:15 10° NNW 06:29:43 21° NNE 06:35:00 10° ENE daylight
17 Dec - 08:16:24 10° NW 08:23:19 40° NNE 08:29:51 10° E daylight
17 Dec - 10:10:09 10° WNW 10:17:05 48° N 10:23:36 10° ENE daylight
17 Dec - 12:04:30 10° W 12:10:42 34° NNW 12:16:35 10° NE daylight
17 Dec - 14:00:26 10° WNW 14:03:53 15° NNW 14:07:18 10° N daylight
18 Dec - 05:31:25 10° N 05:36:00 17° NNE 05:40:29 10° ENE visible
18 Dec - 07:22:44 10° NW 07:29:34 36° NNE 07:36:03 10° E daylight
18 Dec - 09:16:14 10° WNW 09:23:20 49° N 09:30:01 10° ENE daylight
18 Dec - 11:10:28 10° W 11:17:03 40° NNW 11:23:16 10° NE daylight
18 Dec - 13:05:40 10° WNW 13:10:22 20° NNW 13:14:56 10° NNE daylight
19 Dec - 04:39:19 10° N 04:42:18 12° NNE 04:45:16 10° NE visible
19 Dec - 06:29:11 10° NW 06:35:47 31° NNE 06:42:08 10° ENE daylight
19 Dec - 08:22:21 10° WNW 08:29:33 47° N 08:36:22 10° ENE daylight
19 Dec - 10:16:27 10° WNW 10:23:21 45° N 10:29:51 10° ENE daylight
19 Dec - 12:11:16 10° WNW 12:16:49 25° NNW 12:22:08 10° NNE daylight
